Weather History for Morgantown, WV

Change the Weather History Date:

Sunday, September 16, 2012

  Actual Average Record
Temperature  
Mean Temperature 61 °F 65 °F  
Max Temperature 74 °F 76 °F 91 °F (1955)
Min Temperature 47 °F 55 °F 35 °F (1966)
Degree Days  
Heating Degree Days 4 3  
Month to date heating degree days 16 23  
Since 1 July heating degree days 16 34  
Cooling Degree Days 0 3  
Month to date cooling degree days 104 66  
Year to date cooling degree days 1104 775  
Growing Degree Days 10 (Base 50)    
Moisture  
Dew Point 48 °F    
Average Humidity 69    
Maximum Humidity 100    
Minimum Humidity 38    
Precipitation  
Precipitation 0.00 in 0.11 in 1.98 in (2010)
Month to date precipitation 1.12 1.69  
Year to date precipitation 21.80 31.16  
Sea Level Pressure  
Sea Level Pressure 30.16 in    
Wind  
Wind Speed 1 mph (North)    
Max Wind Speed 7 mph    
Max Gust Speed 10 mph    
Visibility 10 miles    
Events      
T = Trace of Precipitation, MM = Missing Value Source: NWS Daily Summary

Daily Weather History Graph

Daily Weather History Graph

Search for Another Location

Airport:

Trip Planner

Search our weather history database for the weather conditions in past years. The results will help you decide how hot, cold, wet, or windy it might be!

Date:

Astronomy

Sep. 16, 2012 Rise Set
Actual Time 7:02 AM EDT 7:25 PM EDT
Civil Twilight 6:35 AM EDT 7:52 PM EDT
Nautical Twilight 6:03 AM EDT 8:24 PM EDT
Astronomical Twilight 5:30 AM EDT 8:56 PM EDT
Moon 7:39 AM EDT (9/16) 7:30 PM EDT (9/16)
Length of Visible Light 13h 17m
Length of Day
12h 23m
New Moon, 0% of the Moon is Illuminated
Sep 16
New Moon
Sep 22
First Quarter
Sep 29
Full
Oct 8
Last Quarter
Oct 15
New

Hourly Weather History & Observations

Time (EDT) Temp. Dew Point Humidity Pressure Visibility Wind Dir Wind Speed Gust Speed Precip Events Conditions
12:53 AM 53.1 °F 50.0 °F 89% 30.20 in 10.0 mi Calm Calm - N/A   Clear
1:53 AM 51.1 °F 48.9 °F 92% 30.20 in 10.0 mi Calm Calm - N/A   Clear
2:53 AM 51.1 °F 48.9 °F 92% 30.19 in 10.0 mi Calm Calm - N/A   Clear
3:53 AM 48.9 °F 48.0 °F 97% 30.19 in 9.0 mi Calm Calm - N/A   Clear
4:53 AM 50.0 °F 46.9 °F 89% 30.19 in 9.0 mi Calm Calm - N/A   Clear
5:53 AM 48.9 °F 48.0 °F 97% 30.19 in 8.0 mi Calm Calm - N/A   Clear
6:53 AM 46.9 °F 46.0 °F 97% 30.19 in 4.0 mi North 3.5 mph - N/A   Clear
7:53 AM 50.0 °F 48.0 °F 93% 30.21 in 9.0 mi Calm Calm - N/A   Clear
8:53 AM 54.0 °F 50.0 °F 86% 30.20 in 10.0 mi Calm Calm - N/A   Clear
9:53 AM 61.0 °F 53.1 °F 75% 30.21 in 10.0 mi Calm Calm - N/A   Clear
10:53 AM 64.0 °F 52.0 °F 65% 30.20 in 10.0 mi Calm Calm - N/A   Clear
11:53 AM 66.9 °F 52.0 °F 59% 30.18 in 10.0 mi Calm Calm - N/A   Clear
12:53 PM 66.9 °F 48.9 °F 52% 30.17 in 10.0 mi Calm Calm - N/A   Clear
1:53 PM 66.9 °F 48.0 °F 51% 30.15 in 10.0 mi North 4.6 mph - N/A   Clear
2:53 PM 70.0 °F 48.0 °F 46% 30.13 in 10.0 mi Calm Calm - N/A   Clear
3:53 PM 73.0 °F 48.0 °F 41% 30.11 in 10.0 mi Variable 3.5 mph - N/A   Clear
4:53 PM 72.0 °F 44.1 °F 37% 30.10 in 10.0 mi Calm Calm - N/A   Clear
5:53 PM 72.0 °F 45.0 °F 38% 30.09 in 10.0 mi North 5.8 mph - N/A   Clear
6:53 PM 66.9 °F 44.1 °F 44% 30.10 in 10.0 mi NNE 4.6 mph - N/A   Clear
7:53 PM 64.9 °F 43.0 °F 45% 30.10 in 10.0 mi Calm Calm - N/A   Clear
8:53 PM 57.9 °F 44.1 °F 60% 30.12 in 10.0 mi Calm Calm - N/A   Clear
9:53 PM 57.0 °F 46.0 °F 67% 30.12 in 10.0 mi Calm Calm - N/A   Clear
10:53 PM 54.0 °F 46.0 °F 75% 30.12 in 10.0 mi Calm Calm - N/A   Clear
11:53 PM 53.1 °F 46.0 °F 77% 30.11 in 10.0 mi Calm Calm - N/A   Clear